GW0353 Weather Reports


time (UTC)temp
C
wind
direction
speed
KPH
gust
KPH
rain 1hr
cm
rain 24hr
cm
rain mn
cm
humidity
%
barometer
mb
20260509072600 8 0 0.0 1.6 0.00 0.00 0.00 54 1024.7
20260509072059 8 0 0.0 1.6 0.00 0.00 0.00 54 1024.7
20260509071558 8 0 0.0 1.6 0.00 0.00 0.00 53 1024.6
20260509071058 8 0 0.0 1.6 0.00 0.00 0.00 54 1024.6
20260509070559 8 0 0.0 1.6 0.00 0.00 0.00 54 1024.5
20260509070057 8 0 0.0 1.6 0.00 0.00 0.00 56 1024.5
20260509065558 8 0 0.0 1.6 0.00 0.00 0.00 52 1024.5
20260509065058 8 0 0.0 1.6 0.00 0.00 0.00 51 1024.4
20260509064617 9 0 0.0 1.6 0.00 0.00 0.00 51 1024.4
20260509064058 9 0 0.0 0.0 0.00 0.00 0.00 52 1024.5
20260509063558 9 0 0.0 0.0 0.00 0.00 0.00 54 1024.6
20260509063059 9 0 0.0 0.0 0.00 0.00 0.00 54 1024.6
20260509062558 9 0 0.0 1.6 0.00 0.00 0.00 52 1024.6
20260509062101 9 0 0.0 3.2 0.00 0.00 0.00 52 1024.8
20260509061558 9 235 0.0 3.2 0.00 0.00 0.00 55 1024.7
20260509061057 9 179 1.6 4.8 0.00 0.00 0.00 57 1024.6
20260509060557 9 0 0.0 4.8 0.00 0.00 0.00 58 1024.8
20260509060108 9 177 1.6 4.8 0.00 0.00 0.00 58 1024.8
20260509055600 9 233 0.0 3.2 0.00 0.00 0.00 60 1024.8
20260509055101 9 0 0.0 3.2 0.00 0.00 0.00 61 1024.9
20260509054603 9 176 0.0 3.2 0.00 0.00 0.00 62 1024.7
20260509054101 10 167 0.0 3.2 0.00 0.00 0.00 61 1024.7
20260509053558 10 207 0.0 8.0 0.00 0.00 0.00 64 1024.9
20260509053108 10 0 0.0 8.0 0.00 0.00 0.00 61 1024.9
20260509052557 11 210 0.0 8.0 0.00 0.00 0.00 60 1024.7
20260509052058 10 0 1.6 3.2 0.00 0.00 0.00 64 1024.7
20260509051603 11 0 0.0 3.2 0.00 0.00 0.00 62 1024.7
20260509051058 11 166 0.0 1.6 0.00 0.00 0.00 63 1024.7
20260509050600 11 70 0.0 1.6 0.00 0.00 0.00 61 1024.5
20260509050105 11 0 0.0 1.6 0.00 0.00 0.00 63 1024.7
20260509045557 11 0 0.0 0.0 0.00 0.00 0.00 60 1024.7
20260509045057 12 0 0.0 0.0 0.00 0.00 0.00 61 1024.5
20260509044559 12 0 0.0 1.6 0.00 0.00 0.00 58 1024.7
20260509044058 12 0 0.0 1.6 0.00 0.00 0.00 55 1024.5
20260509043557 12 0 0.0 3.2 0.00 0.00 0.00 55 1024.6
20260509043101 13 0 0.0 3.2 0.00 0.00 0.00 55 1024.6
20260509042558 12 46 0.0 3.2 0.00 0.00 0.00 55 1024.4
20260509042058 13 0 0.0 1.6 0.00 0.00 0.00 53 1024.3
20260509041556 13 0 0.0 1.6 0.00 0.00 0.00 55 1024.3
20260509041058 13 199 0.0 1.6 0.00 0.00 0.00 51 1024.3
20260509040557 13 0 0.0 3.2 0.00 0.00 0.00 53 1024.3
20260509040100 13 0 0.0 3.2 0.00 0.00 0.00 51 1024.2
20260509035600 13 237 1.6 3.2 0.00 0.00 0.00 53 1024.3
20260509035100 14 0 0.0 3.2 0.00 0.00 0.00 56 1024.0
20260509034558 14 0 0.0 3.2 0.00 0.00 0.00 52 1023.9
20260509034057 14 82 0.0 3.2 0.00 0.00 0.00 53 1024.0
20260509033600 14 169 0.0 9.7 0.00 0.00 0.00 51 1023.8
20260509033109 15 0 0.0 11.3 0.00 0.00 0.00 51 1023.7
20260509032558 15 60 6.4 12.9 0.00 0.00 0.00 51 1023.6
20260509032058 15 69 9.7 12.9 0.00 0.00 0.00 53 1023.5
20260509031605 15 83 0.0 6.4 0.00 0.00 0.00 32 1023.3
20260509031058 15 0 1.6 6.4 0.00 0.00 0.00 31 1023.1
20260509030558 16 161 0.0 3.2 0.00 0.00 0.00 30 1023.1
20260509030057 16 191 0.0 1.6 0.00 0.00 0.00 27 1023.2
20260509025557 17 0 0.0 4.8 0.00 0.00 0.00 26 1023.1
20260509025102 17 0 0.0 4.8 0.00 0.00 0.00 26 1023.0
20260509024555 17 314 0.0 4.8 0.00 0.00 0.00 28 1022.9
20260509024059 18 0 1.6 4.8 0.00 0.00 0.00 32 1022.9
20260509023558 18 311 0.0 6.4 0.00 0.00 0.00 32 1022.9
20260509023106 18 0 1.6 6.4 0.00 0.00 0.00 27 1022.9
20260509022558 18 7 0.0 6.4 0.00 0.00 0.00 28 1022.9
20260509022058 18 13 0.0 4.8 0.00 0.00 0.00 26 1022.9
20260509021559 19 336 0.0 3.2 0.00 0.00 0.00 27 1022.9
20260509021102 20 23 0.0 3.2 0.00 0.00 0.00 23 1022.7
20260509020557 20 20 0.0 6.4 0.00 0.00 0.00 22 1022.7
20260509020057 20 252 1.6 8.0 0.00 0.00 0.00 23 1022.7
20260509015558 20 0 0.0 8.0 0.00 0.00 0.00 23 1022.6
20260509015059 20 0 0.0 6.4 0.00 0.00 0.00 22 1022.6
20260509014555 21 55 0.0 11.3 0.00 0.00 0.00 22 1022.6
20260509014058 21 248 0.0 11.3 0.00 0.00 0.00 21 1022.5
20260509013558 22 200 0.0 3.2 0.00 0.00 0.00 20 1022.6
20260509013109 22 143 0.0 11.3 0.00 0.00 0.00 19 1022.4
20260509012558 22 77 1.6 11.3 0.00 0.00 0.00 19 1022.5
20260509012058 22 0 1.6 9.7 0.00 0.00 0.00 19 1022.5
20260509011559 22 309 3.2 11.3 0.00 0.00 0.00 18 1022.6
20260509011057 22 272 1.6 11.3 0.00 0.00 0.00 18 1022.5
20260509010601 22 265 1.6 9.7 0.00 0.00 0.00 18 1022.6
20260509010059 23 0 1.6 12.9 0.00 0.00 0.00 18 1022.6
20260509005559 23 330 1.6 12.9 0.00 0.00 0.00 19 1022.6
20260509005058 23 0 3.2 14.5 0.00 0.00 0.00 19 1022.6
20260509004628 23 295 1.6 16.1 0.00 0.00 0.00 19 1022.5
20260509004058 23 246 3.2 16.1 0.00 0.00 0.00 18 1022.6
20260509003558 23 111 0.0 14.5 0.00 0.00 0.00 19 1022.6
20260509003102 23 96 1.6 14.5 0.00 0.00 0.00 18 1022.6
20260509002558 23 349 1.6 9.7 0.00 0.00 0.00 18 1022.6
20260509002058 24 55 0.0 9.7 0.00 0.00 0.00 18 1022.6
20260509001601 24 113 0.0 9.7 0.00 0.00 0.00 18 1022.8
20260509001058 24 0 0.0 9.7 0.00 0.00 0.00 17 1022.7
20260509000602 24 62 1.6 9.7 0.00 0.00 0.00 18 1022.8
20260508235558 24 314 1.6 16.1 0.00 0.00 0.00 17 1022.7
20260508235058 24 137 1.6 16.1 0.00 0.00 0.00 16 1022.8
20260508234558 24 117 3.2 16.1 0.00 0.00 0.00 17 1022.9
20260508234059 24 117 4.8 16.1 0.00 0.00 0.00 15 1022.9
20260508233558 24 217 3.2 14.5 0.00 0.00 0.00 15 1023.0
20260508233134 24 130 3.2 14.5 0.00 0.00 0.00 15 1022.9
20260508232558 25 238 1.6 9.7 0.00 0.00 0.00 14 1023.0
20260508232058 25 98 1.6 8.0 0.00 0.00 0.00 16 1023.0
20260508231558 25 124 1.6 14.5 0.00 0.00 0.00 15 1023.0
20260508231058 25 30 1.6 14.5 0.00 0.00 0.00 13 1023.0
20260508230558 25 163 3.2 12.9 0.00 0.00 0.00 14 1022.9
20260508230101 25 4 3.2 17.7 0.00 0.00 0.00 13 1022.9
20260508225558 25 215 1.6 17.7 0.00 0.00 0.00 13 1023.0
20260508225058 25 101 1.6 17.7 0.00 0.00 0.00 14 1023.1
20260508224621 25 0 0.0 11.3 0.00 0.00 0.00 11 1023.1
20260508224058 25 44 1.6 11.3 0.00 0.00 0.00 10 1022.9
20260508223559 25 130 3.2 14.5 0.00 0.00 0.00 13 1023.0
20260508223110 25 284 1.6 14.5 0.00 0.00 0.00 11 1023.1
20260508222558 25 289 1.6 12.9 0.00 0.00 0.00 11 1023.1
20260508222059 25 0 1.6 9.7 0.00 0.00 0.00 11 1023.1
20260508221610 25 107 1.6 9.7 0.00 0.00 0.00 12 1023.1
20260508221058 25 32 1.6 9.7 0.00 0.00 0.00 12 1023.1
20260508220607 25 231 3.2 9.7 0.00 0.00 0.00 10 1023.1
20260508220059 25 68 3.2 11.3 0.00 0.00 0.00 12 1022.9
20260508215558 25 105 4.8 11.3 0.00 0.00 0.00 12 1023.1
20260508215058 25 182 4.8 11.3 0.00 0.00 0.00 11 1023.1
20260508214559 25 152 4.8 9.7 0.00 0.00 0.00 9 1023.1
20260508214058 25 117 1.6 8.0 0.00 0.00 0.00 10 1023.2
20260508213559 25 252 3.2 14.5 0.00 0.00 0.00 11 1023.4
20260508213057 25 210 0.0 14.5 0.00 0.00 0.00 9 1023.3
20260508212558 26 172 4.8 12.9 0.00 0.00 0.00 10 1023.2
20260508212057 26 254 1.6 8.0 0.00 0.00 0.00 12 1023.3
20260508211555 25 0 3.2 14.5 0.00 0.00 0.00 9 1023.4
20260508211058 25 226 4.8 14.5 0.00 0.00 0.00 10 1023.6
20260508210558 25 61 3.2 14.5 0.00 0.00 0.00 12 1023.7
20260508210058 25 292 3.2 17.7 0.00 0.00 0.00 10 1023.6
20260508205559 25 169 4.8 17.7 0.00 0.00 0.00 9 1023.7
20260508205058 25 284 4.8 12.9 0.00 0.00 0.00 10 1023.8
20260508204558 26 243 3.2 12.9 0.00 0.00 0.00 10 1023.8
20260508204101 26 158 1.6 12.9 0.00 0.00 0.00 10 1023.9
20260508203558 26 240 3.2 12.9 0.00 0.00 0.00 9 1023.9
20260508203100 26 207 1.6 8.0 0.00 0.00 0.00 10 1023.8
20260508202559 25 270 3.2 9.7 0.00 0.00 0.00 10 1023.9
20260508202058 25 60 1.6 9.7 0.00 0.00 0.00 11 1023.9
20260508201558 25 288 1.6 9.7 0.00 0.00 0.00 10 1024.0
20260508201058 25 306 1.6 9.7 0.00 0.00 0.00 11 1023.9
20260508200558 25 55 1.6 9.7 0.00 0.00 0.00 12 1024.0
20260508200111 23 313 1.6 12.9 0.00 0.00 0.00 12 1024.1
20260508195558 23 54 3.2 12.9 0.00 0.00 0.00 11 1024.1
20260508195058 23 71 6.4 11.3 0.00 0.00 0.00 12 1024.1
20260508194605 23 51 3.2 12.9 0.00 0.00 0.00 11 1024.1
20260508194057 23 34 4.8 12.9 0.00 0.00 0.00 13 1024.2
20260508193558 23 258 4.8 11.3 0.00 0.00 0.00 12 1024.3
20260508193105 23 307 4.8 16.1 0.00 0.00 0.00 12 1024.3
20260508192600 23 354 4.8 16.1 0.00 0.00 0.00 13 1024.3
20260508192059 23 56 6.4 16.1 0.00 0.00 0.00 12 1024.3
20260508191557 23 264 4.8 11.3 0.00 0.00 0.00 14 1024.4
20260508191058 23 43 4.8 11.3 0.00 0.00 0.00 13 1024.5
20260508190559 23 56 3.2 11.3 0.00 0.00 0.00 13 1024.6
20260508190132 22 358 4.8 12.9 0.00 0.00 0.00 12 1024.5
20260508185557 22 30 4.8 12.9 0.00 0.00 0.00 13 1024.4
20260508185058 22 358 6.4 12.9 0.00 0.00 0.00 12 1024.5
20260508184559 23 44 3.2 8.0 0.00 0.00 0.00 14 1024.6
20260508184100 23 333 3.2 9.7 0.00 0.00 0.00 13 1024.7
20260508183557 22 357 1.6 11.3 0.00 0.00 0.00 16 1024.7
20260508183103 21 20 6.4 11.3 0.00 0.00 0.00 16 1024.8
20260508182557 22 43 4.8 12.9 0.00 0.00 0.00 17 1025.0
20260508182058 22 55 3.2 12.9 0.00 0.00 0.00 16 1024.9
20260508181558 22 39 4.8 11.3 0.00 0.00 0.00 15 1025.0
20260508181058 22 27 1.6 8.0 0.00 0.00 0.00 15 1025.0
20260508180558 21 287 3.2 11.3 0.00 0.00 0.00 15 1024.9
20260508180104 21 77 3.2 11.3 0.00 0.00 0.00 17 1025.0
20260508175558 20 63 4.8 11.3 0.00 0.00 0.00 19 1025.2
20260508175101 20 87 3.2 16.1 0.00 0.00 0.00 19 1025.2
20260508174612 20 70 4.8 16.1 0.00 0.00 0.00 17 1025.3
20260508174057 20 32 1.6 9.7 0.00 0.00 0.00 18 1025.4
20260508173558 20 23 4.8 9.7 0.00 0.00 0.00 17 1025.5
20260508173059 21 55 3.2 6.4 0.00 0.00 0.00 19 1025.5
20260508172603 21 348 3.2 8.0 0.00 0.00 0.00 20 1025.4
20260508172058 20 30 3.2 8.0 0.00 0.00 0.00 21 1025.3
20260508171601 20 46 0.0 6.4 0.00 0.00 0.00 21 1025.5
20260508171100 20 27 1.6 6.4 0.00 0.00 0.00 23 1025.3
20260508170558 19 0 0.0 6.4 0.00 0.00 0.00 21 1025.6
20260508170059 18 333 3.2 8.0 0.00 0.00 0.00 22 1025.5
20260508165558 18 66 3.2 8.0 0.00 0.00 0.00 24 1025.5
20260508165058 18 44 1.6 8.0 0.00 0.00 0.00 24 1025.6
20260508164556 17 337 1.6 11.3 0.00 0.00 0.00 25 1025.5
20260508164057 16 52 6.4 11.3 0.00 0.00 0.00 28 1025.6
20260508163601 16 56 6.4 11.3 0.00 0.00 0.00 29 1025.6
20260508163111 16 60 1.6 6.4 0.00 0.00 0.00 33 1025.6
20260508162558 16 342 3.2 6.4 0.00 0.00 0.00 32 1025.6
20260508162101 16 46 1.6 6.4 0.00 0.00 0.00 34 1025.7
20260508161559 16 46 1.6 4.8 0.00 0.00 0.00 38 1025.8
20260508161104 16 50 1.6 6.4 0.00 0.00 0.00 35 1025.7
20260508160600 15 63 0.0 6.4 0.00 0.00 0.00 39 1025.8
20260508160115 14 74 3.2 6.4 0.00 0.00 0.00 40 1025.8
20260508155558 14 55 1.6 6.4 0.00 0.00 0.00 43 1025.9
20260508155058 13 51 1.6 6.4 0.00 0.00 0.00 44 1025.8
20260508154603 13 78 3.2 6.4 0.00 0.00 0.00 43 1025.8
20260508154058 13 82 3.2 4.8 0.00 0.00 0.00 49 1025.8
20260508153601 12 82 3.2 3.2 0.00 0.00 0.00 59 1025.8
20260508153058 12 72 0.0 1.6 0.00 0.00 0.00 65 1025.8
20260508152559 11 0 0.0 4.8 0.00 0.00 0.00 67 1025.7
20260508152059 11 82 1.6 4.8 0.00 0.00 0.00 69 1025.7
20260508151602 10 43 0.0 4.8 0.00 0.00 0.00 71 1025.7
20260508151059 9 64 0.0 4.8 0.00 0.00 0.00 70 1025.7
20260508150557 9 0 0.0 1.6 0.00 0.00 0.00 73 1025.7
20260508150057 8 0 0.0 1.6 0.00 0.00 0.00 74 1025.8
20260508145601 8 0 0.0 0.0 0.00 0.00 0.00 76 1026.0
20260508145102 7 0 0.0 0.0 0.00 0.00 0.00 78 1026.0
20260508144556 7 0 0.0 0.0 0.00 0.00 0.00 78 1025.9
20260508144057 7 0 0.0 0.0 0.00 0.00 0.00 79 1025.8
20260508143558 7 0 0.0 0.0 0.00 0.00 0.00 80 1025.7
20260508143101 6 0 0.0 0.0 0.00 0.00 0.00 80 1025.8
20260508142558 6 0 0.0 0.0 0.00 0.00 0.00 81 1025.7
20260508142100 6 0 0.0 0.0 0.00 0.00 0.00 80 1025.7
20260508141559 6 0 0.0 0.0 0.00 0.00 0.00 81 1025.7
20260508141058 5 0 0.0 0.0 0.00 0.00 0.00 81 1025.6
20260508140558 5 0 0.0 0.0 0.00 0.00 0.00 84 1025.6
20260508140110 4 0 0.0 0.0 0.00 0.00 0.00 84 1025.5
20260508135558 3 0 0.0 0.0 0.00 0.00 0.00 90 1025.5
20260508135058 2 0 0.0 0.0 0.00 0.00 0.00 92 1025.5
20260508134557 1 0 0.0 0.0 0.00 0.00 0.00 92 1025.4
20260508134057 1 0 0.0 0.0 0.00 0.00 0.00 92 1025.3
20260508133601 1 0 0.0 0.0 0.00 0.00 0.00 91 1025.5
20260508133100 1 0 0.0 0.0 0.00 0.00 0.00 90 1025.3
20260508132557 1 0 0.0 0.0 0.00 0.00 0.00 90 1025.3
20260508132058 1 0 0.0 1.6 0.00 0.00 0.00 91 1025.3
20260508131600 1 0 0.0 1.6 0.00 0.00 0.00 90 1025.2
20260508131058 1 168 0.0 0.0 0.00 0.00 0.00 90 1025.3
20260508130602 1 0 0.0 0.0 0.00 0.00 0.00 89 1025.2
20260508130106 1 0 0.0 0.0 0.00 0.00 0.00 90 1025.1
20260508125558 1 0 0.0 0.0 0.00 0.00 0.00 89 1025.3
20260508125058 1 0 0.0 1.6 0.00 0.00 0.00 90 1025.3
20260508124603 1 0 0.0 1.6 0.00 0.00 0.00 90 1025.3
20260508124058 1 174 0.0 1.6 0.00 0.00 0.00 87 1025.3
20260508123558 1 209 0.0 3.2 0.00 0.00 0.00 88 1025.3
20260508123100 1 0 0.0 3.2 0.00 0.00 0.00 88 1025.3
20260508122557 1 183 0.0 1.6 0.00 0.00 0.00 87 1025.3
20260508122100 2 0 0.0 0.0 0.00 0.00 0.00 90 1025.3
20260508121629 2 0 0.0 0.0 0.00 0.00 0.00 90 1025.2
20260508121058 2 0 0.0 0.0 0.00 0.00 0.00 90 1025.2
20260508120556 2 0 0.0 0.0 0.00 0.00 0.00 88 1025.0
20260508120057 2 0 0.0 0.0 0.00 0.00 0.00 86 1025.1
20260508115557 2 0 0.0 3.2 0.00 0.00 0.00 86 1025.1
20260508115059 2 0 0.0 3.2 0.00 0.00 0.00 86 1025.1
20260508114555 2 0 1.6 3.2 0.00 0.00 0.00 86 1025.1
20260508114057 2 0 0.0 1.6 0.00 0.00 0.00 85 1025.1
20260508113559 2 0 0.0 1.6 0.00 0.00 0.00 88 1025.2
20260508113104 2 168 0.0 1.6 0.00 0.00 0.00 84 1025.1
20260508112557 2 0 0.0 1.6 0.00 0.00 0.00 85 1025.2
20260508112058 2 0 0.0 1.6 0.00 0.00 0.00 86 1025.0
20260508111607 3 0 0.0 1.6 0.00 0.00 0.00 88 1025.1
20260508111059 2 172 0.0 1.6 0.00 0.00 0.00 84 1025.1
20260508110559 2 181 0.0 1.6 0.00 0.00 0.00 87 1025.3
20260508110059 2 0 0.0 0.0 0.00 0.00 0.00 83 1025.2
20260508105557 3 0 0.0 0.0 0.00 0.00 0.00 85 1025.3
20260508105057 3 0 0.0 0.0 0.00 0.00 0.00 86 1025.4
20260508104604 3 0 0.0 0.0 0.00 0.00 0.00 84 1025.3
20260508104057 3 0 0.0 0.0 0.00 0.00 0.00 81 1025.4
20260508103556 3 0 0.0 0.0 0.00 0.00 0.00 83 1025.4
20260508103057 3 0 0.0 1.6 0.00 0.00 0.00 85 1025.5
20260508102557 3 0 0.0 3.2 0.00 0.00 0.00 83 1025.5
20260508102101 3 0 0.0 3.2 0.00 0.00 0.00 81 1025.3
20260508101557 3 0 0.0 0.0 0.00 0.00 0.00 81 1025.5
20260508101058 3 0 0.0 0.0 0.00 0.00 0.00 82 1025.3
20260508100601 3 0 0.0 1.6 0.00 0.00 0.00 81 1025.4
20260508095558 4 0 0.0 0.0 0.00 0.00 0.00 79 1025.5
20260508095105 5 0 0.0 3.2 0.00 0.00 0.00 79 1025.3
20260508094607 5 0 0.0 3.2 0.00 0.00 0.00 80 1025.4
20260508094055 5 0 0.0 3.2 0.00 0.00 0.00 81 1025.3
20260508093555 5 0 0.0 1.6 0.00 0.00 0.00 79 1025.3
20260508093100 5 181 0.0 1.6 0.00 0.00 0.00 80 1025.4
20260508092558 5 0 0.0 0.0 0.00 0.00 0.00 78 1025.3
20260508092057 5 0 0.0 1.6 0.00 0.00 0.00 79 1025.4
20260508091606 6 0 0.0 1.6 0.00 0.00 0.00 79 1025.3
20260508091057 5 181 0.0 3.2 0.00 0.00 0.00 81 1025.2
20260508090557 5 0 0.0 3.2 0.00 0.00 0.00 78 1025.3
20260508090111 6 181 0.0 3.2 0.00 0.00 0.00 77 1025.3
20260508085557 6 0 0.0 0.0 0.00 0.00 0.00 78 1025.3
20260508085056 6 0 0.0 1.6 0.00 0.00 0.00 77 1025.3
20260508084607 6 0 0.0 1.6 0.00 0.00 0.00 78 1025.5
20260508084058 6 0 0.0 1.6 0.00 0.00 0.00 79 1025.5
20260508083558 6 0 0.0 0.0 0.00 0.00 0.00 76 1025.5
20260508083055 7 0 0.0 0.0 0.00 0.00 0.00 77 1025.7
20260508082559 7 0 0.0 3.2 0.00 0.00 0.00 79 1025.6
20260508082055 6 0 1.6 3.2 0.00 0.00 0.00 79 1025.7
20260508081610 6 195 0.0 3.2 0.00 0.00 0.00 76 1025.7
20260508081059 6 169 0.0 3.2 0.00 0.00 0.00 75 1025.9
20260508080555 7 0 0.0 0.0 0.00 0.00 0.00 77 1025.8
20260508080101 7 0 0.0 0.0 0.00 0.00 0.00 78 1025.8
20260508075559 7 0 0.0 0.0 0.00 0.00 0.00 76 1025.7
20260508075056 7 0 0.0 0.0 0.00 0.00 0.00 75 1025.8
20260508074558 7 0 0.0 0.0 0.00 0.00 0.00 76 1025.8
20260508074059 7 0 0.0 1.6 0.00 0.00 0.00 77 1025.7
20260508073559 7 0 0.0 1.6 0.00 0.00 0.00 75 1025.7
20260508073107 7 210 0.0 0.0 0.00 0.00 0.00 77 1025.9